EN

Hourly Weather Alimbay

Today, 16 January, Saturday

Time Temperature Precipitation Wind Pressure Humidity
00:00 -12°C° 0 mm 7 mps 735 mmHg 82%
01:00 -11°C° 0 mm 6 mps 734 mmHg 82%
02:00 -11°C° 0 mm 6 mps 734 mmHg 83%
03:00 -13°C° 0 mm 7 mps 734 mmHg 84%
04:00 -13°C° 0 mm 7 mps 733 mmHg 84%
05:00 -13°C° 0 mm 7 mps 733 mmHg 85%
06:00 -13°C° 0 mm 7 mps 733 mmHg 86%
07:00 -12°C° 0 mm 6 mps 732 mmHg 87%
08:00 -12°C° 0.1 mm 6 mps 732 mmHg 89%
09:00 -12°C° 0.1 mm 6 mps 733 mmHg 91%
10:00 -11°C° 0 mm 5 mps 733 mmHg 94%
11:00 -8°C° 0.1 mm 5 mps 733 mmHg 93%
12:00 -6°C° 0.1 mm 5 mps 734 mmHg 93%
13:00 -2°C° 0.1 mm 5 mps 734 mmHg 92%
14:00 -5°C° 0 mm 5 mps 735 mmHg 91%
15:00 -7°C° 0 mm 5 mps 735 mmHg 90%
16:00 -8°C° 0 mm 5 mps 735 mmHg 89%
17:00 -10°C° 0 mm 4 mps 736 mmHg 88%
18:00 -12°C° 0 mm 4 mps 737 mmHg 88%
19:00 -15°C° 0 mm 4 mps 737 mmHg 88%
20:00 -16°C° 0 mm 4 mps 738 mmHg 88%
21:00 -16°C° 0 mm 4 mps 738 mmHg 88%
22:00 -17°C° 0 mm 4 mps 739 mmHg 88%
23:00 -17°C° 0 mm 4 mps 739 mmHg 88%

Tomorrow, 17 January, Sunday

Time Temperature Precipitation Wind Pressure Humidity
00:00 -17°C° 0 mm 4 mps 739 mmHg 88%
01:00 -18°C° 0 mm 5 mps 739 mmHg 88%
02:00 -17°C° 0 mm 5 mps 739 mmHg 88%
03:00 -17°C° 0 mm 5 mps 739 mmHg 88%
04:00 -17°C° 0 mm 5 mps 738 mmHg 88%
05:00 -17°C° 0 mm 6 mps 738 mmHg 88%
06:00 -16°C° 0 mm 6 mps 738 mmHg 89%
07:00 -16°C° 0 mm 6 mps 737 mmHg 89%
08:00 -16°C° 0 mm 6 mps 738 mmHg 89%
09:00 -15°C° 0 mm 6 mps 738 mmHg 89%
10:00 -14°C° 0 mm 7 mps 738 mmHg 89%
11:00 -13°C° 0 mm 7 mps 738 mmHg 89%
12:00 -12°C° 0 mm 7 mps 737 mmHg 88%
13:00 -11°C° 0 mm 7 mps 737 mmHg 88%
14:00 -11°C° 0 mm 6 mps 737 mmHg 89%
15:00 -12°C° 0 mm 5 mps 738 mmHg 89%
16:00 -12°C° 0 mm 4 mps 738 mmHg 90%
17:00 -13°C° 0 mm 3 mps 738 mmHg 90%
18:00 -15°C° 0 mm 3 mps 738 mmHg 90%
19:00 -15°C° 0 mm 2 mps 738 mmHg 90%
20:00 -14°C° 0 mm 1 mps 738 mmHg 88%
21:00 -14°C° 0 mm 1 mps 738 mmHg 87%
22:00 -15°C° 0 mm 0 mps 738 mmHg 85%
23:00 -15°C° 0 mm 0 mps 738 mmHg 83%

Day after tomorrow, 18 January, Monday

Time Temperature Precipitation Wind Pressure Humidity
00:00 -15°C° 0 mm 0 mps 738 mmHg 82%
01:00 -14°C° 0 mm 0 mps 738 mmHg 80%
02:00 -14°C° 0 mm 0 mps 738 mmHg 80%
03:00 -14°C° 0 mm 1 mps 738 mmHg 79%
04:00 -13°C° 0 mm 1 mps 738 mmHg 79%
05:00 -12°C° 0 mm 1 mps 738 mmHg 79%
06:00 -12°C° 0 mm 1 mps 738 mmHg 79%
07:00 -11°C° 0 mm 1 mps 738 mmHg 79%
08:00 -10°C° 0 mm 1 mps 738 mmHg 78%
09:00 -9°C° 0 mm 1 mps 738 mmHg 78%
10:00 -10°C° 0 mm 2 mps 738 mmHg 77%
11:00 -9°C° 0 mm 2 mps 738 mmHg 79%
12:00 -9°C° 0 mm 2 mps 738 mmHg 81%
13:00 -9°C° 0 mm 3 mps 738 mmHg 83%
14:00 -10°C° 0 mm 3 mps 737 mmHg 84%
15:00 -12°C° 0 mm 3 mps 737 mmHg 85%
16:00 -13°C° 0 mm 3 mps 737 mmHg 87%
17:00 -14°C° 0 mm 3 mps 737 mmHg 87%
18:00 -16°C° 0 mm 4 mps 737 mmHg 87%
19:00 -17°C° 0 mm 4 mps 737 mmHg 87%
20:00 -17°C° 0 mm 4 mps 736 mmHg 87%
21:00 -17°C° 0 mm 4 mps 736 mmHg 87%
22:00 -17°C° 0 mm 4 mps 736 mmHg 87%
23:00 -17°C° 0 mm 4 mps 735 mmHg 88%

19 January, Tuesday

Time Temperature Precipitation Wind Pressure Humidity
00:00 -18°C° 0 mm 4 mps 735 mmHg 88%
01:00 -17°C° 0 mm 3 mps 735 mmHg 88%
02:00 -17°C° 0 mm 3 mps 735 mmHg 89%
03:00 -19°C° 0 mm 4 mps 734 mmHg 90%
04:00 -19°C° 0 mm 4 mps 734 mmHg 90%
05:00 -19°C° 0 mm 4 mps 734 mmHg 91%
06:00 -20°C° 0 mm 4 mps 734 mmHg 92%
07:00 -20°C° 0 mm 4 mps 733 mmHg 93%
08:00 -19°C° 0 mm 4 mps 733 mmHg 94%
09:00 -18°C° 0 mm 3 mps 733 mmHg 94%
10:00 -17°C° 0 mm 3 mps 733 mmHg 94%
11:00 -16°C° 0.1 mm 3 mps 733 mmHg 94%
12:00 -16°C° 0.1 mm 3 mps 732 mmHg 94%
13:00 -14°C° 0.1 mm 2 mps 732 mmHg 94%
14:00 -13°C° 0.4 mm 2 mps 732 mmHg 94%
15:00 -13°C° 0.4 mm 2 mps 732 mmHg 94%
16:00 -12°C° 0.4 mm 2 mps 732 mmHg 94%
17:00 -13°C° 0 mm 2 mps 732 mmHg 94%
18:00 -13°C° 0 mm 2 mps 733 mmHg 95%
19:00 -15°C° 0 mm 3 mps 733 mmHg 95%
20:00 -16°C° 0 mm 3 mps 734 mmHg 95%
21:00 -18°C° 0 mm 4 mps 735 mmHg 95%
22:00 -21°C° 0 mm 5 mps 735 mmHg 95%
23:00 -22°C° 0 mm 4 mps 736 mmHg 95%

20 January, Wednesday

Time Temperature Precipitation Wind Pressure Humidity
00:00 -23°C° 0 mm 4 mps 736 mmHg 96%
01:00 -24°C° 0 mm 4 mps 737 mmHg 96%
02:00 -25°C° 0 mm 4 mps 737 mmHg 96%
03:00 -25°C° 0 mm 4 mps 738 mmHg 96%
04:00 -26°C° 0 mm 4 mps 738 mmHg 96%
05:00 -25°C° 0 mm 3 mps 738 mmHg 96%
06:00 -24°C° 0 mm 3 mps 739 mmHg 96%
07:00 -24°C° 0 mm 3 mps 739 mmHg 95%
08:00 -23°C° 0 mm 3 mps 739 mmHg 95%
09:00 -22°C° 0 mm 3 mps 740 mmHg 94%
10:00 -22°C° 0 mm 4 mps 740 mmHg 93%
11:00 -21°C° 0 mm 3 mps 740 mmHg 93%
12:00 -19°C° 0 mm 3 mps 740 mmHg 93%
13:00 -18°C° 0 mm 3 mps 740 mmHg 93%
14:00 -18°C° 0 mm 3 mps 740 mmHg 93%
15:00 -18°C° 0 mm 3 mps 740 mmHg 94%
16:00 -18°C° 0 mm 3 mps 740 mmHg 95%
17:00 -19°C° 0 mm 3 mps 740 mmHg 95%
18:00 -21°C° 0 mm 3 mps 740 mmHg 95%
19:00 -22°C° 0 mm 3 mps 740 mmHg 96%
20:00 -22°C° 0 mm 3 mps 739 mmHg 96%
21:00 -22°C° 0 mm 3 mps 739 mmHg 95%
22:00 -23°C° 0 mm 3 mps 739 mmHg 95%
23:00 -22°C° 0 mm 3 mps 739 mmHg 95%

21 January, Thursday

Time Temperature Precipitation Wind Pressure Humidity
00:00 -22°C° 0 mm 3 mps 739 mmHg 95%
01:00 -22°C° 0 mm 3 mps 739 mmHg 95%
02:00 -23°C° 0 mm 3 mps 740 mmHg 96%
03:00 -23°C° 0 mm 3 mps 740 mmHg 97%
04:00 -24°C° 0 mm 3 mps 740 mmHg 97%
05:00 -25°C° 0 mm 3 mps 740 mmHg 97%
06:00 -26°C° 0 mm 3 mps 740 mmHg 97%
07:00 -29°C° 0 mm 3 mps 741 mmHg 97%
08:00 -29°C° 0 mm 3 mps 741 mmHg 97%
09:00 -30°C° 0 mm 3 mps 742 mmHg 96%
10:00 -30°C° 0 mm 3 mps 742 mmHg 96%
11:00 -29°C° 0 mm 3 mps 742 mmHg 95%
12:00 -29°C° 0 mm 3 mps 742 mmHg 94%
13:00 -27°C° 0 mm 3 mps 743 mmHg 93%
14:00 -29°C° 0 mm 3 mps 743 mmHg 94%
15:00 -29°C° 0 mm 3 mps 743 mmHg 94%
16:00 -30°C° 0 mm 3 mps 743 mmHg 95%
17:00 -30°C° 0 mm 3 mps 743 mmHg 94%
18:00 -31°C° 0 mm 3 mps 744 mmHg 94%
19:00 -31°C° 0 mm 3 mps 744 mmHg 94%
20:00 -31°C° 0 mm 3 mps 744 mmHg 94%
21:00 -31°C° 0 mm 3 mps 744 mmHg 95%
22:00 -31°C° 0 mm 3 mps 744 mmHg 95%
23:00 -31°C° 0 mm 3 mps 744 mmHg 95%
Show more